• Join FlightAware (Why Join?)
  • Login
  • US Flag 
08:21PM EDT


 

Airport Tracker/Info


-or-


 

Live Flight TrackerFlight Track Log ✈ DAL1117 ✈ 19-Apr-2013 ✈ KDTW - KLAS

Flight Track Log - Related Links

Times and Time Zones

All times are in EDT time to prevent confusion due to time zone crossing. See the DAL1117 flight status page for this flight to view local times or setup timezone preferences in your user account.

Time Position Orientation Groundspeed Altitude Reporting Facility
EDT Latitude Longitude Course Direction KTS MPH feet Rate Location/Type
09:52PM 42.2031 -83.3556 275° West 121 139 1,900  Level FAA TRACON SMA TRACON (SMA)
09:53PM 42.1936 -83.3683 225° Southwest 134 154 2,500 1,320 Climbing FAA TRACON SMA TRACON (SMA)
09:53PM 42.1831 -83.3825 225° Southwest 157 181 2,800 900 Climbing FAA TRACON SMA TRACON (SMA)
09:53PM 42.1733 -83.3958 225° Southwest 177 204 3,100 1,020 Climbing FAA TRACON SMA TRACON (SMA)
09:54PM 42.1581 -83.4167 225° Southwest 217 250 3,500 1,620 Climbing FAA TRACON SMA TRACON (SMA)
09:54PM 42.1444 -83.4347 225° Southwest 230 265 4,200 2,580 Climbing FAA TRACON SMA TRACON (SMA)
09:54PM 42.1286 -83.4558 225° Southwest 233 268 5,300 3,300 Climbing FAA TRACON SMA TRACON (SMA)
09:55PM 42.3076 -83.7714 285° West  Level FlightAware Approximate
09:55PM 42.1172 -83.4781 235° Southwest 225 259 6,400  Level FAA TRACON SMA TRACON (SMA)
09:55PM 42.1178 -83.5083 271° West 227 261 7,500 2,700 Climbing FAA TRACON SMA TRACON (SMA)
09:55PM 42.1272 -83.5303 300° West 242 278 8,200 2,400 Climbing FAA TRACON SMA TRACON (SMA)
09:56PM 42.3451 -83.9114 292° West  Level FlightAware Approximate
09:56PM 42.1394 -83.5564 302° West 248 285 9,100  Level FAA TRACON SMA TRACON (SMA)
09:56PM 42.1531 -83.5858 302° West 242 278 9,700 1,800 Climbing FAA TRACON SMA TRACON (SMA)
09:56PM 42.1647 -83.6117 301° West 256 295 10,300 1,500 Climbing FAA TRACON SMA TRACON (SMA)
09:57PM 42.3866 -84.0496 292° West  Level FlightAware Approximate
09:57PM 42.1775 -83.6392 302° West 281 323 10,700  Level FAA TRACON SMA TRACON (SMA)
09:57PM 42.1942 -83.6761 301° West 307 353 11,100 1,020 Climbing FAA TRACON SMA TRACON (SMA)
09:57PM 42.2086 -83.7075 302° West 319 367 11,400 780 Climbing FAA TRACON SMA TRACON (SMA)
09:58PM 42.4172 -84.1909 275° West  Level FlightAware Approximate
09:58PM 42.2189 -83.7347 297° West 275 316 11,600  Level Cleveland Center
09:59PM 42.2681 -83.8439 301° West 320 368 13,700 2,040 Climbing Cleveland Center
10:00PM 42.3211 -83.9589 302° West 348 400 15,700 1,920 Climbing Cleveland Center
10:01PM 42.3756 -84.0828 301° West 368 423 17,600 1,800 Climbing Cleveland Center
10:02PM 42.4258 -84.2092 298° West 373 429 19,400 1,680 Climbing Cleveland Center
10:03PM 42.4319 -84.3503 273° West 373 429 21,000 1,500 Climbing Cleveland Center
10:04PM 42.4333 -84.4939 271° West 379 436 22,400 1,260 Climbing Cleveland Center
10:05PM 42.4417 -84.7375 273° West 397 457 24,500 1,200 Climbing Chicago Center
10:06PM 42.4447 -84.8889 272° West 402 463 25,800 1,020 Climbing Chicago Center
10:07PM 42.4483 -85.0428 272° West 409 471 26,700 780 Climbing Chicago Center
10:08PM 42.4522 -85.1997 272° West 416 479 27,500 660 Climbing Chicago Center
10:09PM 42.4547 -85.3603 271° West 423 487 28,100 840 Climbing Chicago Center
10:10PM 42.4578 -85.5236 272° West 430 495 29,300 1,260 Climbing Chicago Center
10:11PM 42.4606 -85.6814 271° West 423 487 30,800 1,020 Climbing Chicago Center
10:13PM 42.4625 -85.8367 271° West 414 476 31,400 540 Climbing Chicago Center
10:14PM 42.4650 -85.9950 271° West 418 481 31,900 540 Climbing Chicago Center
10:15PM 42.4553 -86.1861 266° West 421 484 32,500 660 Climbing Chicago Center
10:16PM 42.4358 -86.3431 261° West 423 487 33,300 660 Climbing Chicago Center
10:17PM 42.4150 -86.5003 260° West 423 487 33,900 300 Climbing Chicago Center
10:18PM 42.3947 -86.6575 260° West 424 488 34,000  Climbing Chicago Center
10:19PM 42.3772 -86.8178 262° West 425 489 34,000  Level Chicago Center
10:20PM 42.3561 -86.9744 260° West 427 491 34,000  Level Chicago Center
10:21PM 42.3331 -87.1283 259° West 423 487 34,000  Level Chicago Center
10:22PM 42.3133 -87.2853 260° West 425 489 34,000  Level Chicago Center
10:23PM 42.2919 -87.4406 260° West 423 487 34,000  Level Chicago Center
10:24PM 42.2706 -87.5964 260° West 423 487 34,000  Level Chicago Center
10:25PM 42.2453 -87.7811 260° West 420 483 34,000  Level Chicago Center
10:26PM 42.2233 -87.9331 259° West 418 481 34,000  Level Chicago Center
10:27PM 42.1978 -88.0861 257° West 421 484 34,000  Level Chicago Center
10:28PM 42.1700 -88.2397 256° West 425 489 34,000  Level Chicago Center
10:29PM 42.1439 -88.3914 257° West 420 483 34,000  Level Chicago Center
10:30PM 42.1158 -88.5419 256° West 419 482 34,000  Level Chicago Center
10:31PM 42.0892 -88.6925 257° West 419 482 34,000  Level Chicago Center
10:32PM 42.0611 -88.8467 256° West 424 488 34,000  Level Chicago Center
10:33PM 42.0269 -89.0294 256° West 424 488 34,000  Level Chicago Center
10:34PM 41.9992 -89.1814 256° West 423 487 34,000  Level Chicago Center
10:35PM 41.9706 -89.3364 256° West 429 494 34,000  Level Chicago Center
10:36PM 41.9433 -89.4867 256° West 423 487 34,000  Level Chicago Center
10:37PM 41.9131 -89.6358 255° West 418 481 34,000  Level Chicago Center
10:38PM 41.8847 -89.7861 256° West 418 481 34,000  Level Chicago Center
10:39PM 41.8575 -89.9361 256° West 423 487 34,000  Level Chicago Center
10:40PM 41.8283 -90.0903 256° West 429 494 34,000  Level Chicago Center
10:41PM 41.7964 -90.2483 255° West 428 493 34,000  Level Chicago Center
10:42PM 41.7658 -90.4011 255° West 427 491 34,000  Level Chicago Center
10:43PM 41.7364 -90.5528 255° West 424 488 34,000  Level Chicago Center
10:44PM 41.7008 -90.7286 255° West 421 484 34,000  Level Chicago Center
10:45PM 41.6708 -90.8786 255° West 420 483 34,000  Level Chicago Center
10:46PM 41.6411 -91.0281 255° West 418 481 34,000  Level Chicago Center
10:47PM 41.6103 -91.1764 255° West 417 480 34,000  Level Chicago Center
10:48PM 41.5794 -91.3242 254° West 416 479 34,000  Level Chicago Center
10:49PM 41.5486 -91.4733 255° West 418 481 34,000  Level Chicago Center
10:50PM 41.5186 -91.6239 255° West 422 486 34,000  Level Chicago Center
10:51PM 41.5042 -91.7736 263° West 410 472 34,000  Level Chicago Center
10:52PM 41.4894 -91.9233 263° West 410 472 34,000  Level Chicago Center
10:53PM 41.4731 -92.1036 263° West 408 470 34,000  Level Chicago Center
10:54PM 41.4581 -92.2522 262° West 407 468 34,000  Level Chicago Center
10:55PM 41.4436 -92.4008 263° West 407 468 34,000  Level Chicago Center
10:56PM 41.4292 -92.5336 262° West 406 467 34,000  Level Chicago Center
10:57PM 41.4111 -92.7100 262° West 405 466 34,000  Level Chicago Center
10:58PM 41.4058 -92.7692 263° West 405 466 34,000  Level Minneapolis Center
10:59PM 41.3867 -92.9433 262° West 401 461 34,000  Level Minneapolis Center
11:00PM 41.3722 -93.0883 262° West 399 459 34,000  Level Minneapolis Center
11:01PM 41.3561 -93.2328 262° West 399 459 34,000  Level Minneapolis Center
11:02PM 41.3403 -93.3781 262° West 400 460 34,000  Level Minneapolis Center
11:03PM 41.3247 -93.5217 262° West 397 457 34,000  Level Minneapolis Center
11:04PM 41.3108 -93.6625 263° West 392 451 34,000  Level Minneapolis Center
11:05PM 41.2897 -93.8356 261° West 396 456 34,000  Level Minneapolis Center
11:06PM 41.2742 -93.9786 262° West 395 455 34,000  Level Minneapolis Center
11:07PM 41.2583 -94.1214 262° West 394 453 34,000  Level Minneapolis Center
11:08PM 41.2414 -94.2622 261° West 395 455 34,000  Level Minneapolis Center
11:09PM 41.2244 -94.4053 261° West 392 451 34,000  Level Minneapolis Center
11:10PM 41.2078 -94.5506 261° West 394 453 34,000  Level Minneapolis Center
11:11PM 41.1911 -94.6953 261° West 397 457 34,000  Level Minneapolis Center
11:12PM 41.1731 -94.8406 261° West 398 458 34,000  Level Minneapolis Center
11:13PM 41.1514 -95.0133 261° West 397 457 34,000  Level Minneapolis Center
11:14PM 41.1336 -95.1583 261° West 398 458 34,000  Level Minneapolis Center
11:15PM 41.1156 -95.3019 261° West 396 456 34,000  Level Minneapolis Center
11:16PM 41.0972 -95.4467 261° West 396 456 34,000  Level Minneapolis Center
11:17PM 41.0781 -95.5925 260° West 399 459 34,000  Level Minneapolis Center
11:18PM 41.0589 -95.7367 260° West 396 456 34,000  Level Minneapolis Center
11:19PM 41.0397 -95.8847 260° West 401 461 34,000  Level Minneapolis Center
11:20PM 41.0206 -96.0314 260° West 401 461 34,000  Level Minneapolis Center
11:21PM 41.0019 -96.1783 261° West 401 461 34,000  Level Minneapolis Center
11:22PM 40.9817 -96.3233 260° West 400 460 34,000  Level Minneapolis Center
11:23PM 40.9617 -96.4694 260° West 401 461 34,000  Level Minneapolis Center
11:24PM 40.9411 -96.6153 259° West 401 461 34,000  Level Minneapolis Center
11:25PM 40.9211 -96.7575 260° West 397 457 34,000  Level Minneapolis Center
11:26PM 40.9081 -96.9028 263° West 397 457 34,000  Level Minneapolis Center
11:27PM 40.8947 -97.0486 263° West 397 457 34,000  Level Minneapolis Center
11:29PM 40.8778 -97.2242 263° West 401 461 34,000  Level Minneapolis Center
11:30PM 40.8633 -97.3700 263° West 401 461 34,000  Level Minneapolis Center
11:31PM 40.8494 -97.5014 262° West 400 460 34,000  Level Minneapolis Center
11:32PM 40.8356 -97.6472 263° West 400 460 34,000  Level Minneapolis Center
11:33PM 40.8211 -97.7931 263° West 400 460 34,000  Level Minneapolis Center
11:34PM 40.8050 -97.9381 262° West 399 459 34,000  Level Minneapolis Center
11:35PM 40.7864 -98.1119 262° West 398 458 34,000  Level Minneapolis Center
11:36PM 40.7714 -98.2575 262° West 399 459 34,000  Level Minneapolis Center
11:37PM 40.7561 -98.4031 262° West 398 458 34,000  Level Minneapolis Center
11:38PM 40.7400 -98.5503 262° West 401 461 34,000  Level Minneapolis Center
11:39PM 40.7242 -98.6981 262° West 403 464 34,000  Level Minneapolis Center
11:40PM 40.7072 -98.8464 261° West 405 466 34,000  Level Minneapolis Center
11:41PM 40.6906 -98.9956 262° West 407 468 34,000  Level Minneapolis Center
11:42PM 40.6733 -99.1450 261° West 409 471 34,000  Level Minneapolis Center
11:42PM 40.6633 -99.2344 262° West 409 471 34,000  Level Denver Center
11:43PM 40.6453 -99.3825 261° West 409 471 34,000  Level Denver Center
11:44PM 40.6283 -99.5300 261° West 406 467 34,000  Level Denver Center
11:46PM 40.6072 -99.7047 261° West 402 463 34,000  Level Denver Center
11:47PM 40.5903 -99.8478 261° West 397 457 34,000  Level Denver Center
11:48PM 40.5742 -99.9725 260° West 397 457 34,000  Level Denver Center
11:49PM 40.5547 -100.1339 261° West 399 459 34,000  Level Denver Center
11:50PM 40.5375 -100.2717 261° West 399 459 34,000  Level Denver Center
11:51PM 40.5175 -100.4344 261° West 403 464 34,000  Level Denver Center
11:52PM 40.4983 -100.5756 260° West 405 466 34,000  Level Denver Center
11:53PM 40.4808 -100.7169 261° West 406 467 34,000  Level Denver Center
11:54PM 40.4603 -100.8800 261° West 404 465 34,000  Level Denver Center
11:55PM 40.4419 -101.0203 260° West 405 466 34,000  Level Denver Center
11:56PM 40.4225 -101.1589 260° West 403 464 34,000  Level Denver Center
11:57PM 40.4006 -101.3217 260° West 403 464 34,000  Level Denver Center
11:58PM 40.3811 -101.4614 260° West 406 467 34,000  Level Denver Center
11:59PM 40.3606 -101.6006 259° West 406 467 34,000  Level Denver Center
12:00AM 40.3378 -101.7639 260° West 407 468 34,000  Level Denver Center
12:01AM 40.3175 -101.9025 259° West 404 465 34,000  Level Denver Center
12:02AM 40.2978 -102.0425 260° West 407 468 34,000  Level Denver Center
12:03AM 40.2739 -102.2047 259° West 406 467 34,000  Level Denver Center
12:04AM 40.2542 -102.3458 260° West 410 472 34,000  Level Denver Center
12:05AM 40.2339 -102.4856 259° West 409 471 34,000  Level Denver Center
12:06AM 40.2086 -102.6467 258° West 406 467 34,000  Level Denver Center
12:07AM 40.1867 -102.7925 259° West 407 468 34,000  Level Denver Center
12:08AM 40.1653 -102.9394 259° West 408 470 34,000  Level Denver Center
12:09AM 40.1414 -103.0864 258° West 410 472 34,000  Level Denver Center
12:10AM 40.1197 -103.2342 259° West 412 474 34,000  Level Denver Center
12:11AM 40.0958 -103.3814 258° West 412 474 34,000  Level Denver Center
12:12AM 40.0739 -103.5286 259° West 409 471 34,000  Level Denver Center
12:13AM 40.0497 -103.6739 258° West 407 468 34,000  Level Denver Center
12:14AM 40.0272 -103.8236 259° West 414 476 34,000  Level Denver Center
12:15AM 40.0031 -103.9697 258° West 410 472 34,000  Level Denver Center
12:16AM 39.9789 -104.1178 258° West 413 475 34,000  Level Denver Center
12:17AM 39.9544 -104.2667 258° West 416 479 34,000 180 Level Denver Center
12:18AM 39.9253 -104.4408 258° West 420 483 34,400 540 Climbing Denver Center
12:19AM 39.9014 -104.5847 258° West 409 471 35,100 780 Climbing Denver Center
12:20AM 39.8736 -104.7306 256° West 412 474 36,000 420 Climbing Denver Center
12:21AM 39.8461 -104.8750 256° West 413 475 36,000  Level Denver Center
12:22AM 39.8186 -105.0178 256° West 407 468 36,000  Level Denver Center
12:23AM 39.7906 -105.1611 256° West 406 467 36,000  Level Denver Center
12:24AM 39.7628 -105.3011 256° West 398 458 36,000  Level Denver Center
12:25AM 39.7344 -105.4428 255° West 404 465 36,100  Climbing Denver Center
12:26AM 39.7072 -105.5800 256° West 389 448 36,000 -60 Descending Denver Center
12:27AM 39.6783 -105.7217 255° West 405 466 36,000  Level Denver Center
12:28AM 39.6508 -105.8658 256° West 407 468 36,000  Level Denver Center
12:29AM 39.6208 -106.0139 255° West 419 482 36,000  Level Denver Center
12:30AM 39.5883 -106.1739 255° West 414 476 36,000 -60 Level Denver Center
12:31AM 39.5658 -106.2919 256° West 408 470 35,900  Descending Denver Center
12:32AM 39.5300 -106.4606 255° West 405 466 36,000  Climbing Denver Center
12:33AM 39.5017 -106.6006 255° West 406 467 36,000  Level Denver Center
12:34AM 39.4733 -106.7350 255° West 404 465 36,000  Level Denver Center
12:35AM 39.4383 -106.8922 254° West 406 467 36,000  Level Denver Center
12:36AM 39.4081 -107.0189 253° West 393 452 36,000  Level Denver Center
12:37AM 39.3761 -107.1469 252° West 391 450 36,000  Level Denver Center
12:38AM 39.3386 -107.2953 252° West 390 449 36,000  Level Denver Center
12:39AM 39.3061 -107.4231 252° West 391 450 36,000  Level Denver Center
12:40AM 39.2742 -107.5489 252° West 387 445 36,000  Level Denver Center
12:41AM 39.2353 -107.7008 252° West 396 456 36,000  Level Denver Center
12:43AM 39.2000 -107.8350 251° West 409 471 36,000  Level Denver Center
12:44AM 39.1656 -107.9719 252° West 416 479 36,000  Level Denver Center
12:45AM 39.1244 -108.1292 251° West 414 476 36,000  Level Denver Center
12:46AM 39.0883 -108.2658 251° West 419 482 36,000  Level Denver Center
12:47AM 39.0525 -108.4006 251° West 416 479 36,000  Level Denver Center
12:48AM 39.0103 -108.5578 251° West 413 475 36,000  Level Denver Center
12:49AM 38.9753 -108.6908 251° West 409 471 36,000  Level Denver Center
12:50AM 38.9394 -108.8242 251° West 410 472 36,000  Level Denver Center
12:51AM 38.9047 -108.9550 251° West 405 466 36,000  Level Denver Center
12:52AM 38.8631 -109.1086 251° West 407 468 36,000  Level Denver Center
12:53AM 38.8267 -109.2400 250° West 407 468 36,000  Level Denver Center
12:54AM 38.7919 -109.3697 251° West 403 464 36,000  Level Denver Center
12:55AM 38.7503 -109.5219 251° West 404 465 36,000  Level Denver Center
12:56AM 38.7142 -109.6500 250° West 399 459 36,000  Level Denver Center
12:57AM 38.6778 -109.7808 250° West 405 466 36,000  Level Denver Center
12:57AM 38.6492 -109.8906 252° West 405 466 36,000  Level Salt Lake Center
12:59AM 38.6058 -110.0417 250° West 405 466 36,000  Level Salt Lake Center
01:00AM 38.5536 -110.1636 241° Southwest 408 470 36,000  Level Salt Lake Center
01:01AM 38.4969 -110.2811 238° Southwest 407 468 36,000  Level Salt Lake Center
01:02AM 38.4217 -110.4356 238° Southwest 402 463 36,000  Level Denver Center
01:03AM 38.3647 -110.5514 238° Southwest 402 463 36,000  Level Denver Center
01:04AM 38.3194 -110.6525 240° Southwest 407 468 36,000  Level Salt Lake Center
01:05AM 38.2528 -110.7900 238° Southwest 409 471 36,000  Level Salt Lake Center
01:06AM 38.1956 -110.9092 239° Southwest 411 473 36,000  Level Salt Lake Center
01:07AM 38.1375 -111.0283 238° Southwest 415 478 36,000  Level Salt Lake Center
01:08AM 38.0767 -111.1519 238° Southwest 414 476 36,000  Level Salt Lake Center
01:09AM 38.0172 -111.2758 239° Southwest 411 473 36,000  Level Salt Lake Center
01:10AM 37.9431 -111.4208 237° Southwest 410 472 36,000  Level Denver Center
01:11AM 37.8825 -111.5436 238° Southwest 410 472 36,000  Level Denver Center
01:12AM 37.8228 -111.6672 239° Southwest 412 474 36,000  Level Salt Lake Center
01:13AM 37.7619 -111.7897 238° Southwest 412 474 36,000  Level Salt Lake Center
01:14AM 37.7006 -111.9111 237° Southwest 411 473 36,000  Level Salt Lake Center
01:15AM 37.6392 -112.0342 238° Southwest 414 476 36,000  Level Salt Lake Center
01:16AM 37.5775 -112.1572 238° Southwest 415 478 36,000  Level Salt Lake Center
01:17AM 37.5153 -112.2800 237° Southwest 415 478 36,000  Level Salt Lake Center
01:18AM 37.4522 -112.4017 237° Southwest 413 475 36,000 -240 Level Salt Lake Center
01:19AM 37.3897 -112.5242 237° Southwest 414 476 35,600 -660 Descending Salt Lake Center
01:20AM 37.3261 -112.6442 236° Southwest 409 471 34,700 -960 Descending Los Angeles Center
01:21AM 37.2639 -112.7675 238° Southwest 413 475 33,700 -1,020 Descending Los Angeles Center
01:22AM 37.2025 -112.8900 238° Southwest 412 474 32,700 -1,020 Descending Los Angeles Center
01:23AM 37.1383 -113.0106 236° Southwest 413 475 31,800 -1,020 Descending Salt Lake Center
01:24AM 37.0769 -113.1289 237° Southwest 407 468 30,800 -1,020 Descending Salt Lake Center
01:25AM 37.0164 -113.2453 237° Southwest 402 463 29,800 -960 Descending Salt Lake Center
01:26AM 36.9544 -113.3631 237° Southwest 403 464 28,900 -960 Descending Salt Lake Center
01:27AM 36.8936 -113.4797 237° Southwest 402 463 27,900 -1,020 Descending Salt Lake Center
01:28AM 36.8211 -113.6189 237° Southwest 400 460 26,700 -1,020 Descending Los Angeles Center
01:29AM 36.7606 -113.7339 237° Southwest 398 458 25,700 -1,020 Descending Los Angeles Center
01:30AM 36.6992 -113.8481 236° Southwest 398 458 24,700 -1,140 Descending Los Angeles Center
01:31AM 36.6383 -113.9647 237° Southwest 400 460 23,400 -1,980 Descending Los Angeles Center
01:32AM 36.5778 -114.0761 236° Southwest 393 452 20,700 -2,880 Descending Los Angeles Center
01:33AM 36.5283 -114.1903 242° Southwest 391 450 17,900 -2,880 Descending Los Angeles Center
01:34AM 36.4739 -114.3056 240° Southwest 370 426 14,900 -2,640 Descending Los Angeles Center
01:35AM 36.4261 -114.4208 243° Southwest 367 422 12,600 -1,860 Descending Los Angeles Center
01:36AM 36.3597 -114.4917 221° Southwest 324 373 11,400 -1,260 Descending Los Angeles Center
01:37AM 36.2725 -114.5081 189° South 313 360 10,100 -1,380 Descending Los Angeles Center
01:38AM 36.2128 -114.5708 220° Southwest 290 334 8,600 -1,080 Descending Los Angeles Center
01:39AM 36.1544 -114.6386 223° Southwest 281 323 8,000 -300 Descending Los Angeles Center
01:40AM 36.1061 -114.7136 231° Southwest 278 320 8,000 -360 Level Los Angeles Center
01:41AM 36.0803 -114.8022 250° West 262 302 7,300 -1,080 Descending Los Angeles Center
01:42AM 36.0736 -114.8897 265° West 242 278 5,700 -1,320 Descending Los Angeles Center
01:43AM 36.0728 -114.9644 269° West 206 237 4,600 -1,020 Descending Los Angeles Center
01:44AM 36.0736 -115.0281 271° West 168 193 3,700 -900 Descending Los Angeles Center